Le nostre stazioni meteo in Italia

Pubblicità
Il mio iltempo24.it
Kielder Castle, Gran Bretagna (99186): Temperatura & dewpoint: 13.04.2019 16:00:00 - 19.04.2019 16:00:00 (BST)Kielder Castle, Gran Bretagna (99186): Temperatura -20cm & Temperatura -100cm: 13.04.2019 16:00:00 - 19.04.2019 16:00:00 (BST)Kielder Castle, Gran Bretagna (99186): precipitazioni: 13.04.2019 16:00:00 - 19.04.2019 16:00:00 (BST)
Data & Tempo tt [°C] td [°C] tt -20cm [°C] tt -100cm [°C] rr [mm]
19.04.2019 16:00:00 19,9 5,6 - - 0,0
19.04.2019 15:00:00 19,5 5,9 - - 0,0
19.04.2019 14:00:00 19,8 5,8 - - 0,0
19.04.2019 13:00:00 18,4 5,5 - - 0,0
19.04.2019 12:00:00 17,4 5,3 - - 0,0
19.04.2019 11:00:00 14,6 7,2 - - 0,0
19.04.2019 10:00:00 11,7 7,2 8,0 6,9 0,0
19.04.2019 09:00:00 7,8 6,9 - - 0,0
19.04.2019 08:00:00 3,4 3,4 - - 0,0
19.04.2019 07:00:00 1,2 1,2 - - 0,0
19.04.2019 06:00:00 1,0 0,9 - - 0,0
19.04.2019 05:00:00 1,1 1,0 - - 0,0
19.04.2019 04:00:00 1,2 1,0 - - 0,0
19.04.2019 03:00:00 1,7 1,5 - - 0,0
19.04.2019 02:00:00 2,4 2,0 - - 0,0
19.04.2019 01:00:00 3,6 3,2 - - 0,0
19.04.2019 00:00:00 5,0 4,2 - - 0,0
18.04.2019 23:00:00 6,4 4,8 - - 0,0
18.04.2019 22:00:00 7,5 4,9 - - 0,0
18.04.2019 21:00:00 9,1 4,7 - - 0,0
18.04.2019 20:00:00 11,0 5,0 - - 0,0
18.04.2019 19:00:00 13,0 5,0 - - 0,0
18.04.2019 18:00:00 14,3 5,0 - - 0,0
18.04.2019 17:00:00 15,3 4,2 - - 0,0
18.04.2019 16:00:00 16,0 5,2 - - 0,0
18.04.2019 15:00:00 16,7 7,6 - - 0,0
18.04.2019 14:00:00 16,1 8,2 - - 0,0
18.04.2019 13:00:00 15,1 8,2 - - 0,0
18.04.2019 12:00:00 13,5 8,6 - - 0,0
18.04.2019 11:00:00 11,3 7,3 - - 0,0
18.04.2019 10:00:00 8,9 6,9 7,7 6,9 0,0
18.04.2019 09:00:00 6,9 6,4 - - 0,0
18.04.2019 08:00:00 3,9 3,9 - - 0,0
18.04.2019 07:00:00 1,5 1,3 - - 0,0
18.04.2019 06:00:00 1,6 1,3 - - 0,0
18.04.2019 05:00:00 2,5 2,1 - - 0,0
18.04.2019 04:00:00 2,9 2,8 - - 0,0
18.04.2019 03:00:00 2,0 1,8 - - 0,0
18.04.2019 02:00:00 1,1 0,7 - - 0,0
18.04.2019 01:00:00 1,6 1,1 - - 0,0
18.04.2019 00:00:00 2,5 1,8 - - 0,0
17.04.2019 23:00:00 3,4 2,3 - - 0,0
17.04.2019 22:00:00 4,9 3,1 - - 0,0
17.04.2019 21:00:00 7,1 3,9 - - 0,0
17.04.2019 20:00:00 8,9 4,4 - - 0,0
17.04.2019 19:00:00 11,4 4,5 - - 0,0
17.04.2019 18:00:00 12,8 4,5 - - 0,0
17.04.2019 17:00:00 14,4 4,4 - - 0,0
17.04.2019 16:00:00 14,7 4,0 - - 0,0
17.04.2019 15:00:00 13,6 4,5 - - 0,0
17.04.2019 14:00:00 12,6 4,4 - - 0,0
17.04.2019 13:00:00 10,8 4,1 - - 0,0
17.04.2019 12:00:00 9,8 5,1 - - 0,0
17.04.2019 11:00:00 8,9 4,7 - - 0,0
17.04.2019 10:00:00 7,5 4,8 7,2 6,7 0,0
17.04.2019 09:00:00 6,2 4,5 - - 0,0
17.04.2019 08:00:00 5,7 4,4 - - 0,0
17.04.2019 07:00:00 5,3 4,0 - - 0,0
17.04.2019 06:00:00 5,3 3,8 - - 0,0
17.04.2019 05:00:00 5,3 3,8 - - 0,0
17.04.2019 04:00:00 5,3 3,7 - - 0,0
17.04.2019 03:00:00 5,4 3,7 - - 0,0
17.04.2019 02:00:00 5,4 3,6 - - 0,0
17.04.2019 01:00:00 5,5 3,5 - - 0,0
17.04.2019 00:00:00 5,5 3,6 - - 0,0
16.04.2019 23:00:00 5,7 3,6 - - 0,0
16.04.2019 22:00:00 5,9 3,7 - - 0,0
16.04.2019 21:00:00 6,2 3,7 - - 0,0
16.04.2019 20:00:00 6,8 3,8 - - 0,0
16.04.2019 19:00:00 7,3 4,0 - - 0,0
16.04.2019 18:00:00 8,4 4,1 - - 0,0
16.04.2019 17:00:00 9,1 4,7 - - 0,0
16.04.2019 16:00:00 9,7 4,8 - - 0,0
16.04.2019 15:00:00 9,4 4,7 - - 0,0
16.04.2019 14:00:00 9,2 5,4 - - 0,0
16.04.2019 13:00:00 8,4 5,3 - - 0,0
16.04.2019 12:00:00 8,2 5,3 - - 0,0
16.04.2019 11:00:00 7,7 4,8 - - 0,0
16.04.2019 10:00:00 7,3 5,3 6,7 6,7 0,0
16.04.2019 09:00:00 6,7 5,2 - - 0,0
16.04.2019 08:00:00 6,4 5,1 - - 0,0
16.04.2019 07:00:00 6,2 5,0 - - 0,0
16.04.2019 06:00:00 6,2 4,9 - - 0,0
16.04.2019 05:00:00 6,2 4,8 - - 0,0
16.04.2019 04:00:00 6,1 4,6 - - 0,0
16.04.2019 03:00:00 6,0 4,4 - - 0,0
16.04.2019 02:00:00 5,9 4,3 - - 0,0
16.04.2019 01:00:00 6,0 4,2 - - 0,0
16.04.2019 00:00:00 6,2 4,1 - - 0,0
15.04.2019 23:00:00 6,0 3,5 - - 0,0
15.04.2019 22:00:00 6,1 3,3 - - 0,0
15.04.2019 21:00:00 6,1 3,2 - - 0,0
15.04.2019 20:00:00 6,4 3,3 - - 0,0
15.04.2019 19:00:00 6,8 2,9 - - 0,0
15.04.2019 18:00:00 7,8 2,9 - - 0,0
15.04.2019 17:00:00 8,4 3,1 - - 0,0
15.04.2019 16:00:00 9,5 2,2 - - 0,0
15.04.2019 15:00:00 8,6 1,4 - - 0,0
15.04.2019 14:00:00 8,9 -0,8 - - 0,0
15.04.2019 13:00:00 8,9 0,4 - - 0,0
15.04.2019 12:00:00 7,3 0,1 - - 0,0
15.04.2019 11:00:00 7,4 0,6 - - 0,0
15.04.2019 10:00:00 6,0 1,4 6,2 6,9 0,0
15.04.2019 09:00:00 3,6 2,0 - - 0,0
15.04.2019 08:00:00 2,1 0,8 - - 0,0
15.04.2019 07:00:00 1,9 0,5 - - 0,0
15.04.2019 06:00:00 0,2 -0,2 - - 0,0
15.04.2019 05:00:00 -0,8 -1,4 - - 0,0
15.04.2019 04:00:00 -0,9 -1,8 - - 0,0
15.04.2019 03:00:00 -0,9 -1,8 - - 0,0
15.04.2019 02:00:00 0,0 -1,4 - - 0,0
15.04.2019 01:00:00 0,3 -1,0 - - 0,0
15.04.2019 00:00:00 1,1 -0,8 - - 0,0
14.04.2019 23:00:00 2,2 0,2 - - 0,0
14.04.2019 22:00:00 2,6 0,2 - - 0,0
14.04.2019 21:00:00 3,7 0,5 - - 0,0
14.04.2019 20:00:00 4,2 -0,2 - - 0,0
14.04.2019 19:00:00 5,0 0,2 - - 0,0
14.04.2019 18:00:00 5,5 -0,5 - - 0,0
14.04.2019 17:00:00 5,9 -1,6 - - 0,0
14.04.2019 16:00:00 6,1 -0,8 - - 0,0
14.04.2019 15:00:00 6,0 -0,4 - - 0,0
14.04.2019 14:00:00 6,6 0,0 - - 0,0
14.04.2019 13:00:00 6,3 0,5 - - 0,0
14.04.2019 12:00:00 6,5 0,6 - - 0,0
14.04.2019 11:00:00 4,9 -0,1 - - 0,0
14.04.2019 10:00:00 4,8 -0,4 6,4 6,9 0,0
14.04.2019 09:00:00 3,6 -0,8 - - 0,0
14.04.2019 08:00:00 -0,3 -1,4 - - 0,0
14.04.2019 07:00:00 -2,6 -3,2 - - 0,0
14.04.2019 06:00:00 -1,8 -2,9 - - 0,0
14.04.2019 05:00:00 -1,9 -2,8 - - 0,0
14.04.2019 04:00:00 -1,2 -2,8 - - 0,0
14.04.2019 03:00:00 -1,1 -2,7 - - 0,0
14.04.2019 02:00:00 -0,8 -2,6 - - 0,0
14.04.2019 01:00:00 -1,7 -3,0 - - 0,0
14.04.2019 00:00:00 -1,8 -3,3 - - 0,0
13.04.2019 23:00:00 -0,2 -2,7 - - 0,0
13.04.2019 22:00:00 -0,1 -3,0 - - 0,0
13.04.2019 21:00:00 1,7 -3,1 - - 0,0
13.04.2019 20:00:00 3,3 -2,8 - - 0,0
13.04.2019 19:00:00 4,7 -3,6 - - 0,0
13.04.2019 18:00:00 5,5 -3,5 - - 0,0
13.04.2019 17:00:00 5,8 -2,2 - - 0,0
13.04.2019 16:00:00 6,8 -1,4 - - 0,0

tt = Temperatura
td = dewpoint
tt -20cm = Temperatura -20cm
tt -100cm = Temperatura -100cm
rr = precipitazioni

Stazioni seguenti

WeatherPro
AMSI
MeteoEarth